COMPLETED DISPATCHED CALLS FOR SERVICE

Welcome to the Jacksonville Sheriff’s Office Completed Dispatched Calls for Service webpage. This page displays calls for service made to the Jacksonville Sheriff's Office that have recently been completed. The data on this page is refreshed automatically.

This information is not intended to be used as official crime data. This program does not provide information about all crimes, and excludes specific incidents such as sexual assaults and child abuse.

Disclaimer: The Jacksonville Sheriff's Office makes every effort to produce and publish current and accurate information. No warranties, expressed or implied, are provided for the data herein, its use, or its interpretation. The services provided are for informational purposes only and should not be relied on for any type of legal action.

Last refreshed 5/31 02:19:34

Incident # Dispatched Block Address Signal Call Description  
202000363448 5-31 01:02 6900 MORSE AVE 19 ANIMAL INVESTIGATION
202000363450 5-31 00:58 4300 CONFEDERATE POINT RD 64 NOISE COMPLAINT
202000363452 5-31 00:57 5900 RICHARD LN W 37 UNVERIFIED 911 CALL
202000363437 5-31 00:55 5800 LENOX AVE 4 AUTO CRASH
202000362118 5-31 00:52 TOWN CENTER PKWY / ST JOHNS BLUFF RD S 91 TRAFFIC LIGHT/RR CROSSING MALFUNCTION
202000361962 5-31 00:52 ARLINGTON XY SERVICE RD / CESERY BLVD 91 TRAFFIC LIGHT/RR CROSSING MALFUNCTION
202000361693 5-31 00:52 TIMUQUANA RD / SEABOARD AVE 91 TRAFFIC LIGHT/RR CROSSING MALFUNCTION
202000363444 5-31 00:50 BEAVER ST W / STOCKTON ST 1050 TRAFFIC STOP
202000362970 5-31 00:50 I95 N OFF RAMP / EMERSON ST 16 ROAD OBSTRUCTION
202000363439 5-31 00:48 BARBER ST / BROADWAY AVE 64 NOISE COMPLAINT
202000363432 5-31 00:47 5100 STEPP AVE 37 UNVERIFIED 911 CALL
202000363435 5-31 00:43 3000 COVENANT COVE DR 64 NOISE COMPLAINT
202000363427 5-31 00:40 8200 NEWTON RD 22 DOMESTIC
202000362404 5-31 00:39 SAN JOSE BLVD / I295 N OFF RAMP 4 AUTO CRASH
202000363429 5-31 00:39 18TH ST W / BOULEVARD 33 DISCHARGING OF FIREARM
202000363430 5-31 00:38 HECKSCHER DR / NEW BERLIN RD E 1050 TRAFFIC STOP
202000363425 5-31 00:37 3200 UNIVERSITY BLVD 63 DISPUTE
202000363407 5-31 00:36 5300 TIMUQUANA RD 64 NOISE COMPLAINT
202000363401 5-31 00:33 SANS SOUCI RD / DEAN RD 22 DOMESTIC
202000363415 5-31 00:32 8200 OLD KINGS RD S 63 DISPUTE
202000363414 5-31 00:29 14900 MAX LEGGETT PKWY 13 SUSPICIOUS PERSON
202000363406 5-31 00:25 1700 BULAVISTA AVE 33 DISCHARGING OF FIREARM
202000363394 5-31 00:23 SUNNYBROOK AVE N / ERIE AVE 33 DISCHARGING OF FIREARM
202000363367 5-31 00:23 8300 WESTOVER CT 50 FOUND/ABANDONED PROPERTY
202082010569 5-31 00:19 18TH ST BEACH ACCESS 54 ILLEGALLY PARKED CAR
202000363392 5-31 00:18 1800 SUNNYMEADE DR 10 VEHICLE THEFT
202000363378 5-31 00:17 4300 SALISBURY RD 63 DISPUTE
202000363280 5-31 00:15 2200 UNIVERSITY BLVD 13 SUSPICIOUS PERSON
202000363384 5-31 00:13 JEFFERSON ST N / 8TH ST W 60 SUICIDE OR ATTEMPT
202000363338 5-31 00:11 5500 CLEVELAND RD 63 DISPUTE
202000363375 5-31 00:09 700 VENUS-MARS CT 64 NOISE COMPLAINT
202000363355 5-31 00:08 4900 FREDERICKSBURG AVE 64 NOISE COMPLAINT
202000363326 5-31 00:04 3500 SMITHFIELD ST 64 NOISE COMPLAINT
202000363321 5-31 00:02 700 DUVAL STATION RD 4 AUTO CRASH
202000363296 5-31 00:02 10900 HARTS RD 63 DISPUTE
202000363219 5-31 00:02 8700 CHERYL ANN LN 2 22 DOMESTIC DISTURBANCE
202000363271 5-31 00:01 7900 BAYMEADOWS CIR E 64 NOISE COMPLAINT
202000363362 5-31 00:00 1200 BROOKWOOD FOREST BLVD 56 JUVENILE COMPLAINT
202000363217 5-30 23:59 13000 GRAN BAY PKWY 64 NOISE COMPLAINT
202000363298 5-30 23:55 HOGAN ST S / WATER ST 9 THEFT
202000363359 5-30 23:54 8000 ATLANTIC BLVD 13 SUSPICIOUS PERSON
202000363331 5-30 23:54 3200 RHONE DR 37 UNVERIFIED 911 CALL
202000363268 5-30 23:51 600 OCEAN ST N 13 SUSPICIOUS PERSON
202000363287 5-30 23:50 BULLS BAY HWY / STOCKS RD 96 ASSIST MOTORIST
202000363352 5-30 23:49 GRAN PARK/COLLINS 12 RECKLESS DRIVER
202000363347 5-30 23:48 400 44TH ST E 22 DOMESTIC
202000363344 5-30 23:47 NICHOLAS CIR S / LAMEE LN 13 SUSPICIOUS PERSON
202000363343 5-30 23:47 8800 ATLANTIC BLVD 63 DISPUTE
202000363346 5-30 23:46 5900 FT CAROLINE RD 13 SUSPICIOUS PERSON
202000363335 5-30 23:42 1900 REDELL ST 13 SUSPICIOUS PERSON
202000363161 5-30 23:42 8600 COLLINS RIDGE BLVD S 64 NOISE COMPLAINT
202000363328 5-30 23:42 6200 LAKE GRAY BLVD 63 DISPUTE
202000363322 5-30 23:38 4600 PARK ST 64 NOISE COMPLAINT
202000363267 5-30 23:38 100 TALLULAH AVE 27 MENTALLY ILL PERSON
202000363319 5-30 23:37 1200 PALISADES DR 76 ASSIST OTHER AGENCY
202000363323 5-30 23:37 4600 KEN KNIGHT DR N 5388 ASSAULT INVOLVING INJURY
202000363317 5-30 23:36 7100 OLD KINGS RD S 63 DISPUTE
202000363314 5-30 23:35 7900 OLD KINGS RD S 64 NOISE COMPLAINT
202000363303 5-30 23:34 DOT ST / POWHATTAN ST 54 ILLEGALLY PARKED CAR
202000363308 5-30 23:31 800 ROCK BAY DR 64 NOISE COMPLAINT
202000363247 5-30 23:29 9200 WILD RD 63 DISPUTE
202082010565 5-30 23:29 800 SEMINOLE RD 13 SUSPICIOUS PERSON
202000363309 5-30 23:28 4600 RIVER CITY DR 1050 TRAFFIC STOP
202000363279 5-30 23:27 TOUCHTON RD / BELFORT RD 64 NOISE COMPLAINT
202000363266 5-30 23:27 3500 BUCKHEAD RD 63 DISPUTE
202000363231 5-30 23:26 PRITCHARD RD / OLD PLANK RD 12 RECKLESS DRIVER
202000363305 5-30 23:25 2100 17TH ST W 22 DOMESTIC
202000363299 5-30 23:23 1200 CLAUDIA SPENCER ST 6388 DISPUTE WITH ASSAULT
202000363272 5-30 23:22 12900 BROXTON BAY DR 64 NOISE COMPLAINT
202000363301 5-30 23:22 1400 FLORIDA AVE 2 22 DOMESTIC DISTURBANCE
202000363172 5-30 23:20 OCALA AVE / BULLS BAY HWY 33 DISCHARGING OF FIREARM
202000363294 5-30 23:18 5500 UNIVERSITY CLUB BLVD N 54 ILLEGALLY PARKED CAR
202000363292 5-30 23:16 8200 KONA AVE 63 DISPUTE
202000363281 5-30 23:15 400 CENTURY 21 DR 73 DRUG INVESTIGATION
202000363289 5-30 23:15 100 ADAMS ST E 14B VANDALISM BUSINESS
202000363256 5-30 23:14 5300 GOLFBROOK DR 1066 CANCEL
202000363055 5-30 23:12 1400 WINDLE ST 73 DRUG INVESTIGATION
202000363258 5-30 23:12 1400 14TH ST W 2 22 DOMESTIC DISTURBANCE
202082010562 5-30 23:10 900 ATLANTIC BLVD 54 ILLEGALLY PARKED CAR
202000363239 5-30 23:08 7700 BLANDING BLVD 63 DISPUTE
202000363262 5-30 23:07 3600 NICHOLAS CIR S 63 DISPUTE
202000363038 5-30 23:06 3800 SAN PABLO RD S 9 THEFT
202000363151 5-30 23:06 BULLS BAY HWY / COMMONWEALTH AVE 33 DISCHARGING OF FIREARM
202000363203 5-30 23:03 1600 LOYOLA DR N 64 NOISE COMPLAINT
202000363222 5-30 23:02 3100 FRANKLIN ST 88 ASSAULT
202000363251 5-30 23:00 2400 BUTTONWOOD DR 64 NOISE COMPLAINT
202000363257 5-30 23:00 SOUTEL DR / LEM TURNER RD 12 RECKLESS DRIVER
202000363255 5-30 22:59 200 ST JOHNS BLUFF RD N 76 ASSIST OTHER AGENCY
202000363229 5-30 22:59 500 COMET ST 2 63 DISPUTE IMPAIRED/INTOXICATED
202000363249 5-30 22:58 7500 MAYAPPLE RD 64 NOISE COMPLAINT
202000363160 5-30 22:57 7000 OLD KINGS RD S 64 NOISE COMPLAINT
202000363246 5-30 22:57 7300 LEM TURNER RD 13 SUSPICIOUS PERSON
202000363230 5-30 22:57 100 TALLULAH AVE 27 MENTALLY ILL PERSON
202000363250 5-30 22:55 11500 MANDARIN COVE LN 76 ASSIST OTHER AGENCY
202000363148 5-30 22:55 7200 POWERS AVE 64 NOISE COMPLAINT
202000363244 5-30 22:55 KEN KNIGHT DR E / KEN KNIGHT DR N 12 RECKLESS DRIVER
202000363190 5-30 22:54 3600 UNIVERSITY BLVD S 27 MENTALLY ILL PERSON
202000363174 5-30 22:54 4600 KEN KNIGHT DR N 64 NOISE COMPLAINT
202000363213 5-30 22:54 5200 COLLINS RD 13 SUSPICIOUS PERSON
202000363170 5-30 22:53 700 ST CLAIR ST 2288 DOMESTIC DISPUTE WITH/ASSAULT
202000363201 5-30 22:52 BROADWAY AVE / BARBER ST 64 NOISE COMPLAINT
202000363238 5-30 22:50 7700 HARE AVE 88 ASSAULT
202000363159 5-30 22:50 8400 CHESWICK OAK AVE 2288 DOMESTIC DISPUTE WITH/ASSAULT
202000363154 5-30 22:50 1000 GRUNTHAL ST 64 NOISE COMPLAINT
202000363227 5-30 22:48 300 68TH ST W 64 NOISE COMPLAINT
202000363150 5-30 22:48 SAN JUAN AVE / NIBLICK DR 73 DRUG INVESTIGATION
202000363233 5-30 22:48 1100 MONMOUTH WAY 1066 CANCEL
202000363121 5-30 22:48 100 ADAMS ST E 14B VANDALISM BUSINESS
202000363232 5-30 22:47 4200 SOUTHSIDE BLVD 76 ASSIST OTHER AGENCY
202000363221 5-30 22:46 12200 JENNY OAK CT 12 RECKLESS DRIVER
202000363098 5-30 22:46 TYLER ST / KINGS RD 3 HIT AND RUN CRASH
202000363083 5-30 22:46 KEN KNIGHT DR E / MONCRIEF RD W 64 NOISE COMPLAINT
202000363214 5-30 22:46 10800 HARTS RD 2288 DOMESTIC DISPUTE WITH/ASSAULT
202000363175 5-30 22:44 1100 SAWYERWOOD DR 63 DISPUTE
202000363169 5-30 22:44 7900 103RD ST 6388 DISPUTE WITH ASSAULT
202000363176 5-30 22:44 HAMPTON PARK BLVD / BAYMEADOWS RD E 4 AUTO CRASH
202000363211 5-30 22:43 8500 TOUCHTON RD 2 22 DOMESTIC DISTURBANCE
202000363228 5-30 22:43 2500 MONUMENT RD 9J THEFT JUST OCCURRED
202000363207 5-30 22:43 8200 103RD ST 1 IMPAIRED/DRUNK DRIVER
202000363070 5-30 22:42 1400 STATE ST W 64 NOISE COMPLAINT
202000363133 5-30 22:41 5700 LENOX AVE 64 NOISE COMPLAINT
202000363216 5-30 22:41 3900 UNIVERSITY BLVD W 63 DISPUTE
202000363218 5-30 22:40 2400 MAYPORT RD 2 22 DOMESTIC DISTURBANCE
202000363220 5-30 22:39 600 MC DUFF AVE S 88 ASSAULT
202000363183 5-30 22:39 6000 TERRY RD 64 NOISE COMPLAINT
202000363064 5-30 22:38 5600 CAGLE RD 6388 DISPUTE WITH ASSAULT
202000363127 5-30 22:38 13100 RIVERGATE WAY 64 NOISE COMPLAINT
202000363155 5-30 22:37 500 COMET ST 64 NOISE COMPLAINT
202000363202 5-30 22:34 800 18TH ST W 6388 DISPUTE WITH ASSAULT
202000363205 5-30 22:34 100 TALLULAH AVE 27 MENTALLY ILL PERSON
202000363210 5-30 22:34 2200 MAYPORT RD 63 DISPUTE
202000363209 5-30 22:32 300 MARKET ST N 76 ASSIST OTHER AGENCY
202000362967 5-30 22:32 1900 5TH ST W 8 MISSING PERSON
202000363198 5-30 22:30 9800 SCOTT MILL RD 76 ASSIST OTHER AGENCY
202000363130 5-30 22:29 6100 TOWNSEND RD 22 DOMESTIC
202000363117 5-30 22:28 5200 SAN JUAN AVE 63 DISPUTE
202000363171 5-30 22:27 2300 RED MOON DR 64 NOISE COMPLAINT
202000363186 5-30 22:27 4800 GATE PKWY 4 AUTO CRASH
202000363097 5-30 22:27 JAMMES RD / SAN JUAN AVE 22 DOMESTIC
202000363192 5-30 22:27 7500 MAYAPPLE RD 64 NOISE COMPLAINT
202000363087 5-30 22:26 7000 OLD KINGS RD S 63 DISPUTE
202000363193 5-30 22:24 44TH ST W / NORWOOD AVE 76 ASSIST OTHER AGENCY
202000363182 5-30 22:23 12700 ATLANTIC BLVD 50 FOUND/ABANDONED PROPERTY
202000363128 5-30 22:23 1500 WIGMORE ST 63 DISPUTE
202000363189 5-30 22:22 800 BERT RD 27 MENTALLY ILL PERSON
202000363078 5-30 22:22 3800 UNIVERSITY BLVD S 61 FIGHT
202000363157 5-30 22:22 9100 BERRY AVE 1066 CANCEL
202000363187 5-30 22:21 10900 KEY HAVEN BLVD 76 ASSIST OTHER AGENCY
202000363180 5-30 22:21 9400 ATLANTIC BLVD 33 DISCHARGING OF FIREARM
202000363188 5-30 22:20 LOSCO RD / OLD ST AUGUSTINE RD 1050 TRAFFIC STOP
202000363185 5-30 22:20 FIRESTONE RD / WILSON BLVD 4 AUTO CRASH
202000363179 5-30 22:20 100 TALLULAH AVE 27 MENTALLY ILL PERSON
202000363076 5-30 22:18 BEACH BLVD / KERNAN BLVD EXIT BEACH BLVD RP 90 FIREWORKS
202000363116 5-30 22:18 6700 RICKER RD 6388 DISPUTE WITH ASSAULT
202000363072 5-30 22:17 4600 PARK ST 64 NOISE COMPLAINT
202000363068 5-30 22:15 700 MAIN ST N 64 NOISE COMPLAINT
202000363149 5-30 22:15 5500 OAK CROSSING DR 2288 DOMESTIC DISPUTE WITH/ASSAULT
202000363173 5-30 22:14 1200 31ST ST W 2288 DOMESTIC DISPUTE WITH/ASSAULT
202000363167 5-30 22:12 CHAFFEE RD S / POW-MIA MEMORIAL PKWY 16 ROAD OBSTRUCTION
202000363142 5-30 22:10 11200 OLD ST AUGUSTINE RD 2 63 DISPUTE IMPAIRED/INTOXICATED
202000363162 5-30 22:09 200 DUVAL STATION RD 22 DOMESTIC
202000363164 5-30 22:09 STATE ST W / TYLER ST 4 AUTO CRASH
202000363126 5-30 22:09 ADAMS ST E / BRYAN ST 14 VANDALISM
202000362968 5-30 22:06 4500 LYNCH RD 1066 CANCEL
202000362876 5-30 22:05 YOUNGERMAN CIR E / BLANDING BLVD 0 88 ARMED ASSAULT
202000363152 5-30 22:05 10500 BRIGHTMAN BLVD 13 SUSPICIOUS PERSON
202000363120 5-30 22:03 69TH ST W / VERMILLION ST 22 DOMESTIC
202000363089 5-30 22:02 1900 ATLANTIC BLVD 37 UNVERIFIED 911 CALL
202000363140 5-30 22:02 1000 AIRPORT RD 63 DISPUTE
202000363145 5-30 22:01 KING ARTHUR RD / BRANDEMERE RD N 64 NOISE COMPLAINT
202000363143 5-30 21:59 10300 LIGHTHOUSE RD N 22 DOMESTIC
202082010556 5-30 21:58 700 ATLANTIC BLVD 13 SUSPICIOUS PERSON
202000363137 5-30 21:56 BARNETT ST / KINGS RD 4 53 TRAFFIC CRASH PERSON INJURED
202000363134 5-30 21:55 100 TALLULAH AVE 27 MENTALLY ILL PERSON
202000363069 5-30 21:54 12800 SAN JOSE BLVD 22 DOMESTIC
202000363135 5-30 21:53 MONUMENT RD / MCCORMICK RD 90 FIREWORKS
202000363095 5-30 21:53 STATE ST W / BROAD ST N 4 AUTO CRASH
202000363041 5-30 21:49 1300 23RD ST W 63 DISPUTE
202000363107 5-30 21:48 SR9B EXPY S / ETOWN EXIT SR9B RP 13 SUSPICIOUS PERSON
202000363122 5-30 21:47 100 TROUT RIVER DR 88P ASSAULT IN PROGRESS
202000363123 5-30 21:47 I95 N OFF RAMP / PHILIPS HWY 1050 TRAFFIC STOP
202000363115 5-30 21:46 300 UNIVERSITY BLVD 2 63 DISPUTE IMPAIRED/INTOXICATED
202000363094 5-30 21:46 I95 N OFF RAMP / 8TH ST W 4 AUTO CRASH
202000363119 5-30 21:45 2900 HARTSFIELD RD 37 UNVERIFIED 911 CALL
202000363105 5-30 21:44 300 68TH ST W 64 NOISE COMPLAINT
202000363111 5-30 21:43 800 DUNN AVE 63 DISPUTE
202000363110 5-30 21:42 100 BUCKMAN BRG S 96 ASSIST MOTORIST
202000363112 5-30 21:42 YOUNGERMAN CIR E / BLANDING BLVD 76 ASSIST OTHER AGENCY
202000363025 5-30 21:41 6100 MERCER CIR W 2288 DOMESTIC DISPUTE WITH/ASSAULT
202000363037 5-30 21:40 1700 26TH ST E 22 DOMESTIC
202000363075 5-30 21:39 WALNUT ST / 21ST ST E 14CJ VANDALISM CONVEYANCE JUST OCCURRED
202000363077 5-30 21:39 7000 CYPRESS COVE RD 13 SUSPICIOUS PERSON
202000363058 5-30 21:38 3900 ATLANTIC BLVD 63 DISPUTE
202000363106 5-30 21:37 2300 SHARON LAKE DR 0 13 ARMED SUSPICIOUS PERSON
202000363056 5-30 21:36 2400 MISS MUFFET LN W 33 DISCHARGING OF FIREARM
202000363101 5-30 21:36 12000 MCCORMICK RD 63 DISPUTE
202000363007 5-30 21:35 2400 BUTTONWOOD DR 64 NOISE COMPLAINT
202000363034 5-30 21:33 2200 LAKE DR 64 NOISE COMPLAINT
202000363074 5-30 21:32 3100 EDGEWOOD AVE N 63 DISPUTE
202000363061 5-30 21:31 TYLER ST / DOT ST 3 HIT AND RUN CRASH
202000363044 5-30 21:30 GOLFAIR BLVD / DAVIS ST N 4 AUTO CRASH
202000363100 5-30 21:30 5200 SOUTEL DR 60 SUICIDE OR ATTEMPT
202000363093 5-30 21:30 400 45TH ST E 73 DRUG INVESTIGATION
202000362996 5-30 21:29 9300 ATLANTIC BLVD 63 DISPUTE
202000363086 5-30 21:28 6900 SHINDLER DR 63 DISPUTE
202000363092 5-30 21:27 6800 BARNEY RD 1066 CANCEL
202000363091 5-30 21:26 8TH ST W / DAVIS ST N 63 DISPUTE
202000363018 5-30 21:26 1400 22ND ST W 63 DISPUTE
202000363047 5-30 21:22 8500 FALLING SPRINGS DR 64 NOISE COMPLAINT
202000362954 5-30 21:20 4700 MANDARIN STATION DR N 63 DISPUTE
202000362911 5-30 21:20 3500 EVE DR W 13 SUSPICIOUS PERSON
202000363081 5-30 21:17 I95 N / STAUGEXIT N I95 RP 4 53 TRAFFIC CRASH PERSON INJURED
202000363027 5-30 21:17 6000 ARGYLE FOREST BLVD 14BJ VANDALISM BUSINESS JUST OCCURRED
202000363067 5-30 21:16 2300 PHILIPS HWY 22 DOMESTIC
202000363059 5-30 21:16 2000 REDWING ST 63 DISPUTE
202000363079 5-30 21:14 4900 DALLEN LEA DR 63 DISPUTE
202000363073 5-30 21:14 10800 RUTHERFORD CT 76 ASSIST OTHER AGENCY
202000362875 5-30 21:12 7000 CHERBOURG AVE N 21R BURGLARY RESIDENCE
202000363053 5-30 21:10 2400 RIDGEWOOD RD 60 SUICIDE OR ATTEMPT
202000363013 5-30 21:10 7700 INDIA AVE 63 DISPUTE
202000363026 5-30 21:10 1200 LABELLE ST 76 ASSIST OTHER AGENCY
202000363066 5-30 21:09 JEFFERSON ST N / UNION ST W 25 FIRE/EXPLOSION
202000363049 5-30 21:08 3600 KERNAN BLVD S 1066 CANCEL
202000363010 5-30 21:08 13300 BEACH BLVD 63 DISPUTE
202000363063 5-30 21:08 HODGES BLVD / JTB E OFF RAMP 76 ASSIST OTHER AGENCY
202000363062 5-30 21:08 3700 BLANDING BLVD 60 SUICIDE OR ATTEMPT
202000363048 5-30 21:06 KEN KNIGHT DR E / MONCRIEF RD W 0 13 ARMED SUSPICIOUS PERSON
202000363054 5-30 21:05 500 JULIA ST N 14 VANDALISM
202000363031 5-30 21:05 500 JULIA ST N 14C VANDALISM CONVEYANCE
202000363045 5-30 21:05 100 UNION ST W 5388 ASSAULT INVOLVING INJURY
202000362507 5-30 21:05 I10 E ON RAMP / CECIL COMMERCE CENTER PKWY 4 AUTO CRASH
202000362406 5-30 21:05 I295 N ON RAMP / 103RD ST 4 AUTO CRASH
202000363051 5-30 21:04 MISS MUFFET LN N / JACK HORNER LN 33 DISCHARGING OF FIREARM
202000363043 5-30 21:04 ARLINGTON RD N / ARLET DR 13 SUSPICIOUS PERSON
202000363050 5-30 21:03 RIVER CITY/AT BURLINGTON COAT FACTORY 63 DISPUTE
202000363016 5-30 21:03 1100 TYLER ST 54 ILLEGALLY PARKED CAR
202000363040 5-30 21:02 I95 N OFF RAMP / MARTIN LUTHER KING JR PKWY 16 ROAD OBSTRUCTION
202000363032 5-30 21:02 12100 BEACH BLVD 33 DISCHARGING OF FIREARM
202000363023 5-30 21:02 8200 DAISY LN N 63 DISPUTE
202000363028 5-30 21:01 2900 BAYSHORE DR E 22 DOMESTIC
202000362985 5-30 21:00 7900 MERRILL RD 54 ILLEGALLY PARKED CAR
202000363039 5-30 20:59 2800 DUNN AVE 88 ASSAULT
202000363042 5-30 20:59 1000 GIRVIN RD 4 AUTO CRASH
202000363033 5-30 20:58 4000 BALTIC ST 95T FRAUD/FORGED (CHECK, ID, RX) (TELESERVE)
202000362952 5-30 20:58 11500 WINGATE RD N 63 DISPUTE
202000363029 5-30 20:55 2200 HILLY RD 76 ASSIST OTHER AGENCY
202000363030 5-30 20:55 BIG ISLAND DR / BUCKHEAD BRANCH DR 1050 TRAFFIC STOP
202000362946 5-30 20:55 1900 DEBUTANTE DR 63 DISPUTE
202000363022 5-30 20:53 2700 JOHN PROM BLVD 12 RECKLESS DRIVER
202000362999 5-30 20:53 5200 SOUTEL DR 2 IMPAIRED/INTOXICATED
202000362973 5-30 20:51 8400 HAMDEN RD 0 22 DOMESTIC DISTURBANCE W/WEAPON
202000362940 5-30 20:45 UNIVERSITY BLVD W / POWERS AVE 4 53 TRAFFIC CRASH PERSON INJURED
202000363014 5-30 20:44 CARROLLTON RD / LEM TURNER RD 4 AUTO CRASH
202000363009 5-30 20:41 9200 ARLINGTON EXPY 61 FIGHT
202000363011 5-30 20:41 N I95EXIT OLDSTAUG RP / OLD ST AUGUSTINE RD 96 ASSIST MOTORIST
202000362882 5-30 20:40 6600 OSCEOLA ST 22 DOMESTIC
202000363008 5-30 20:40 MARTIN LUTHER KING JR PKWY / N 20THEXIT MLK RP 4 53 TRAFFIC CRASH PERSON INJURED
202000362945 5-30 20:39 9100 GALVESTON AVE 63 DISPUTE
202000363002 5-30 20:39 I95 N OFF RAMP / ZOO PKWY 4 AUTO CRASH
202000363003 5-30 20:38 PEARL ST N / STATE ST W 76 ASSIST OTHER AGENCY
202000363001 5-30 20:38 PEARL ST N / STATE ST W 4 53 TRAFFIC CRASH PERSON INJURED
202000363000 5-30 20:37 8200 DAISY LN N 1066 CANCEL
202000363006 5-30 20:37 100 MONROE ST E 14B VANDALISM BUSINESS
202000362997 5-30 20:36 600 OCEAN ST N 14C VANDALISM CONVEYANCE
202000362971 5-30 20:33 500 CHESTNUT DR 63 DISPUTE
202000362937 5-30 20:33 6900 WILEY RD 88J ASSAULT JUST OCCURRED
202000362988 5-30 20:32 6000 TERRY RD 9T THEFT (TELESERVE)
202000362965 5-30 20:31 1600 4TH ST W 61 FIGHT
202000362992 5-30 20:30 200 COAST LINE DR E 34 OFFICER CALLING FOR HELP
202000362974 5-30 20:30 8600 LEM TURNER RD 61 FIGHT
202000362943 5-30 20:29 REMINGTON ST / MCDUFF AVE S 16 ROAD OBSTRUCTION
202000362989 5-30 20:29 1000 UNIVERSITY BLVD 26C CARDIAC AED
202000362972 5-30 20:28 9500 SISSON DR 21CT BURGLARY CONVEYANCE TELESERVE
202000362981 5-30 20:27 10100 OLD ST AUGUSTINE RD 13 SUSPICIOUS PERSON
202000362978 5-30 20:26 LAURA ST N / FORSYTH ST W 13 SUSPICIOUS PERSON
202000362936 5-30 20:25 800 PHILLIPS ST 13 SUSPICIOUS PERSON
202000362977 5-30 20:24 13700 MCCORMICK RD 22 DOMESTIC
202000362975 5-30 20:24 I95 EXPY N 16 ROAD OBSTRUCTION
202000362964 5-30 20:21 3400 TOWNSEND BLVD 64 NOISE COMPLAINT
202000362961 5-30 20:20 SHAD RD / FLORIDA MINING BLVD E 64 NOISE COMPLAINT
202000362920 5-30 20:20 8800 PERIMETER PARK BLVD 2 63 DISPUTE IMPAIRED/INTOXICATED
202000362966 5-30 20:18 3900 SALISBURY RD 60 SUICIDE OR ATTEMPT
202000362960 5-30 20:16 N I95EXIT OLDSTAUG RP / OLD ST AUGUSTINE RD 16 ROAD OBSTRUCTION
202000362969 5-30 20:15 12000 LAKE FERN DR 76 ASSIST OTHER AGENCY
202000362962 5-30 20:15 PARENTAL HOME RD / HOGAN RD 4 AUTO CRASH
202000362950 5-30 20:11 8600 BAYMEADOWS RD E 26C CARDIAC AED
202000362847 5-30 20:10 12500 BEACH BLVD 21R BURGLARY RESIDENCE
202000362949 5-30 20:09 2200 HILLY RD 76 ASSIST OTHER AGENCY
202000362948 5-30 20:09 3200 JUSTINA RD 6388 DISPUTE WITH ASSAULT
202000362927 5-30 20:08 8800 BEACH BLVD 63 DISPUTE
202000362931 5-30 20:08 9300 ATLANTIC BLVD 13 SUSPICIOUS PERSON
202000362857 5-30 20:08 200 US301 S 13 SUSPICIOUS PERSON
202000362921 5-30 20:07 100 38TH ST W 63 DISPUTE
202000362681 5-30 20:05 1400 STEELE ST 10 VEHICLE THEFT
202000362941 5-30 20:05 3300 TARPON DR 1066 CANCEL
202000362939 5-30 20:01 3200 UNIVERSITY BLVD 60 SUICIDE OR ATTEMPT
202000362887 5-30 20:00 7900 SMART AVE 22 DOMESTIC
202000362914 5-30 19:58 600 8TH ST W 63 DISPUTE
202000362895 5-30 19:58 7600 103RD ST 4 AUTO CRASH
202000362935 5-30 19:55 100 A PHILIP RANDOLPH BLVD 13 SUSPICIOUS PERSON
202000362899 5-30 19:55 1000 TYLER ST 64 NOISE COMPLAINT
202000362934 5-30 19:55 EASTPORT RD / MAIN ST N 96 ASSIST MOTORIST
202000362854 5-30 19:55 4400 ISH BRANT RD W 63 DISPUTE
202000362803 5-30 19:55 OLD KINGS RD / NEW KINGS RD 11 ABANDONED VEHICLE
202000362933 5-30 19:54 100 38TH ST W 76 ASSIST OTHER AGENCY
202000362925 5-30 19:54 CITY CENTER BLVD / CITY SQUARE DR 96 ASSIST MOTORIST
202000362889 5-30 19:54 5000 J TURNER BUTLER BLVD 63 DISPUTE
202000362905 5-30 19:53 8200 HONEYSUCKLE LN 63 DISPUTE
202000362863 5-30 19:52 7300 OVERLAND PARK BLVD W 22 DOMESTIC
202000362923 5-30 19:52 1100 CRESTDALE ST 9T THEFT (TELESERVE)
202000362926 5-30 19:50 8100 CAYUGA TRL W 60 SUICIDE OR ATTEMPT
202000362855 5-30 19:49 8400 JASPER AVE 22 DOMESTIC
202000362924 5-30 19:48 13400 ATLANTIC BLVD 96 ASSIST MOTORIST
202000362910 5-30 19:45 1800 SOUTHAMPTON RD 79 OBSCENE / THREAT CALL OR LETTER
202000362832 5-30 19:44 1500 STATE ST W 64 NOISE COMPLAINT
202000362904 5-30 19:40 10900 HECKSCHER DR 96 ASSIST MOTORIST
202000362913 5-30 19:38 3100 JUSTINA RD 0 13 ARMED SUSPICIOUS PERSON
202000362902 5-30 19:38 5800 ATLANTIC BLVD 63 DISPUTE
202000362881 5-30 19:37 4200 BUCKMAN ST 2288 DOMESTIC DISPUTE WITH/ASSAULT
202000362903 5-30 19:37 100 43RD ST E 63 DISPUTE
202000362883 5-30 19:37 1500 24TH ST W 6388 DISPUTE WITH ASSAULT
202000362846 5-30 19:36 12400 CADLEY CIR 63 DISPUTE
202000362831 5-30 19:35 2200 CHEROKEE COVE TRL 2288 DOMESTIC DISPUTE WITH/ASSAULT
202000362907 5-30 19:35 200 RUSSELL AVE 76 ASSIST OTHER AGENCY
202000362908 5-30 19:34 BAY ST E / NEWNAN ST N 62 PERSON CUT
202000362901 5-30 19:33 1200 POWHATTAN ST 3388 DISCHARGING FIREARM AT PERSON
202000362824 5-30 19:32 5300 CORD AVE 64 NOISE COMPLAINT
202000362859 5-30 19:30 BLANDING BLVD / TOWNSEND RD 63 DISPUTE
202000362808 5-30 19:28 1200 BROOKWOOD FOREST BLVD 54 ILLEGALLY PARKED CAR
202000362838 5-30 19:27 100 STONEMASON WAY 37 UNVERIFIED 911 CALL
202000362773 5-30 19:27 8400 BLANDING BLVD 4 AUTO CRASH
202000362893 5-30 19:25 500 ADAMS ST W 34 OFFICER CALLING FOR HELP
202082010552 5-30 19:25 I295 N OFF RAMP / DUVAL RD 1050 TRAFFIC STOP
202000362891 5-30 19:22 BEACH BLVD / ICW BEACH BRG 13 SUSPICIOUS PERSON
202000362888 5-30 19:20 HOGAN RD / SOUTHSIDE BLVD 4 53 TRAFFIC CRASH PERSON INJURED
202000362885 5-30 19:20 3800 MAIN ST N 4 63 CRASH INVOLVING DISPUTE
202000362869 5-30 19:19 4800 GATE PKWY 19 ANIMAL INVESTIGATION
202000362877 5-30 19:15 1800 NEWBOLT CT 60 SUICIDE OR ATTEMPT
202000362872 5-30 19:13 I295 N OFF RAMP / DUVAL RD 4 53 TRAFFIC CRASH PERSON INJURED
202000362864 5-30 19:12 N I95EXIT OLDSTAUG RP / OLD ST AUGUSTINE RD 12 RECKLESS DRIVER
202000362866 5-30 19:11 14000 LYLE RD 63 DISPUTE
202000362853 5-30 19:10 6TH ST W / PEARCE ST 22 DOMESTIC
202000362868 5-30 19:10 3700 TOLEDO RD 60 SUICIDE OR ATTEMPT
202000362860 5-30 19:10 2000 DOCTOR ROY BAKER ST 37 UNVERIFIED 911 CALL
202082010551 5-30 19:09 400 ATLANTIC BLVD 64 NOISE COMPLAINT
202000362862 5-30 19:07 500 BAY ST E 13 SUSPICIOUS PERSON
202082010550 5-30 19:07 700 CAVALLA RD 64 NOISE COMPLAINT
202000362848 5-30 19:07 1400 DUNN AVE 63 DISPUTE
202000362713 5-30 19:06 900 BROOKVIEW DR N 2 63 DISPUTE IMPAIRED/INTOXICATED
202000362849 5-30 19:03 600 BEE BEE DR 13 SUSPICIOUS PERSON
202000362852 5-30 19:02 I10 EXPY 88P ASSAULT IN PROGRESS
202000362770 5-30 19:01 300 LAKE MARIETTA DR W 64 NOISE COMPLAINT
202000362752 5-30 18:56 8900 SNELLGROVE AVE E 1066 CANCEL
202000362828 5-30 18:54 1300 LACLEDE AVE 1066 CANCEL
202000362842 5-30 18:52 3800 ALMEDA ST 22 DOMESTIC
202000362843 5-30 18:51 9500 ARLINGTON EXPY 56 JUVENILE COMPLAINT
202000362789 5-30 18:50 3500 RAIN FOREST DR W 63 DISPUTE
202000362841 5-30 18:49 14500 BRADDOCK RD 4 53 TRAFFIC CRASH PERSON INJURED
202000362778 5-30 18:47 1600 2ND ST W 22 DOMESTIC
202000362827 5-30 18:45 ARLINGTON RD N / BLACKARD RD 4 AUTO CRASH
202000362819 5-30 18:44 3500 STRATTON RD 2288 DOMESTIC DISPUTE WITH/ASSAULT
202000362807 5-30 18:44 103RD ST / JAMMES RD 4 AUTO CRASH
202000362763 5-30 18:44 8200 IRELAND DR 56 JUVENILE COMPLAINT
202000362835 5-30 18:43 100 SHIRCLIFF WAY 7 DEAD PERSON
202000362780 5-30 18:43 MAIN ST N / BERNARD RD 4 53 TRAFFIC CRASH PERSON INJURED
202000362830 5-30 18:41 1100 W BAY 76 ASSIST OTHER AGENCY
202000362825 5-30 18:40 BEACH BLVD / PALM LN 1050 TRAFFIC STOP
202082010549 5-30 18:38 700 OCEAN BLVD 63 DISPUTE
202000362704 5-30 18:37 900 ADAMS ST W 88 ASSAULT
202000362809 5-30 18:34 4000 TIMUQUANA RD 76 ASSIST OTHER AGENCY
202000362767 5-30 18:32 103RD ST / LA VENTURA DR E 4 AUTO CRASH
202000362806 5-30 18:32 9700 TOUCHTON RD 63 DISPUTE
202000362769 5-30 18:31 7600 CLUB DUCLAY DR 22 DOMESTIC
202000362796 5-30 18:31 1600 UNIVERSITY BLVD S 4 AUTO CRASH
202000362656 5-30 18:31 7300 103RD ST 22 DOMESTIC
202000362787 5-30 18:31 1700 HODGES BLVD 63 DISPUTE
202000362788 5-30 18:25 4600 SALISBURY RD 4 AUTO CRASH
202000362781 5-30 18:24 6700 TOWNSEND RD 13 SUSPICIOUS PERSON
202000362776 5-30 18:21 8000 WESTPORT RD 22 DOMESTIC
202082010546 5-30 18:20 900 OCEAN BLVD 63 DISPUTE
202000362779 5-30 18:19 7000 HARRISBURG RD 76 ASSIST OTHER AGENCY
202000362762 5-30 18:18 7TH ST W / TYLER ST 64 NOISE COMPLAINT
202000362753 5-30 18:18 7900 INDIA AVE 63 DISPUTE
202000362727 5-30 18:16 2900 BEACHWOOD BLVD 9 THEFT
202000362741 5-30 18:16 1000 MARGARET ST 13 SUSPICIOUS PERSON
202000362760 5-30 18:11 8000 WESTPORT RD 22 DOMESTIC
202000362756 5-30 18:10 1000 GRUNTHAL ST 64 NOISE COMPLAINT
202000362766 5-30 18:09 8500 GATE PKWY W 63 DISPUTE
202000362764 5-30 18:08 PARENTAL HOME RD / BEACH BLVD 61 FIGHT
202000362737 5-30 18:07 12200 ATLANTIC BLVD 63 DISPUTE
202000362751 5-30 18:07 1100 27TH ST W 2 63 DISPUTE IMPAIRED/INTOXICATED
202000362745 5-30 18:06 BEACH BLVD / EVE DR E 4 AUTO CRASH
202000362687 5-30 18:04 2600 UNIVERSITY BLVD 63 DISPUTE
202000362755 5-30 18:03 9000 DANDY AVE 76 ASSIST OTHER AGENCY
202000362703 5-30 18:03 1800 BLANDING BLVD 10 VEHICLE THEFT
202000362750 5-30 18:02 2300 LAKE LUCINA DR E 63 DISPUTE
202000362749 5-30 18:00 BLANDING BLVD / COLONIAL AVE 1050 TRAFFIC STOP
202000362747 5-30 18:00 2500 BROADWAY AVE 87 DAMAGED PROPERTY
202000362735 5-30 17:58 5500 WESCONNETT BLVD 4 AUTO CRASH
202000362734 5-30 17:57 5400 BRISTOL BAY LN N 10R VEHICLE THEFT RECOVERY
202000362740 5-30 17:55 4200 PHILIPS HWY 1066 CANCEL
202000362723 5-30 17:51 100 FULLER WARREN BRG N 16 ROAD OBSTRUCTION
202000362729 5-30 17:50 6900 DEER ISLAND RD 13 SUSPICIOUS PERSON
202000362724 5-30 17:50 1300 45TH ST W 19 ANIMAL INVESTIGATION
202000362726 5-30 17:49 12300 SACHA RD 4 53 TRAFFIC CRASH PERSON INJURED
202000362718 5-30 17:47 600 MCDUFF AVE S 63 DISPUTE
202000362646 5-30 17:47 7600 HERLONG RD 22 DOMESTIC
202000362674 5-30 17:47 7900 118TH ST 16 ROAD OBSTRUCTION
202000362626 5-30 17:46 2000 HYDE PARK RD 49 REPORT TO HOSPITAL
202000362721 5-30 17:46 1300 8TH ST W 63 DISPUTE
202000362716 5-30 17:45 9900 BEACH BLVD 13 SUSPICIOUS PERSON
202000362717 5-30 17:43 5800 WILSON BLVD 96 ASSIST MOTORIST
202000362715 5-30 17:43 8500 TOUCHTON RD 2288 DOMESTIC DISPUTE WITH/ASSAULT
202000362572 5-30 17:42 8600 2ND AVE 9T THEFT (TELESERVE)
202000362714 5-30 17:42 10500 BRIARCLIFF RD E 17 PERSON DOWN OR SICK
202000362701 5-30 17:42 8800 BEACH BLVD 63 DISPUTE
202000362711 5-30 17:42 MARKET ST N / BAY ST E 0 88J ARMED ASSAULT JUST OCCURRED
202000362708 5-30 17:41 400 22ND ST W 63 DISPUTE
202000362706 5-30 17:40 5400 NORWOOD AVE 63 DISPUTE
202000362707 5-30 17:39 800 CLAY N 60 SUICIDE OR ATTEMPT
202000362659 5-30 17:38 800 DUNN AVE 63 DISPUTE
202000362698 5-30 17:36 4500 LYNCH RD 22 DOMESTIC
202000362697 5-30 17:31 2900 CESERY BLVD 9T THEFT (TELESERVE)
202000362680 5-30 17:30 6800 NORMANDY BLVD 5582 HOLDING ONE FOR SHOPLIFTING
202000362694 5-30 17:30 1000 UNIVERSITY BLVD 63 DISPUTE
202000362692 5-30 17:27 8500 BEACH BLVD 63 DISPUTE
202000362693 5-30 17:27 3100 SUNNYBROOK CT 21RP BURGLARY RESIDENCE IN PROGRESS
202000362690 5-30 17:27 11200 BEACH BLVD 63 DISPUTE
202000362624 5-30 17:27 11000 FT CAROLINE RD 63 DISPUTE
202000362677 5-30 17:26 1400 8TH ST W 63 DISPUTE
202000362676 5-30 17:25 5200 NORWOOD AVE 63 DISPUTE
202000362688 5-30 17:25 12000 MCCORMICK RD 50 FOUND/ABANDONED PROPERTY
202000362684 5-30 17:23 3000 BROADWAY AVE 1066 CANCEL
202000362682 5-30 17:22 4800 ARROWSMITH RD 26C CARDIAC AED
202000362685 5-30 17:22 4800 ARROWSMITH RD 26C CARDIAC AED
202000362678 5-30 17:18 9700 SOUTHBROOK DR 63 DISPUTE
202082010544 5-30 17:17 400 IREX RD 37 UNVERIFIED 911 CALL
202000362670 5-30 17:14 APPROX LOC:6660 CISCO GARDENS RD W 37 UNVERIFIED 911 CALL
202000362673 5-30 17:13 MONCRIEF RD / VOORHIES RD 16 ROAD OBSTRUCTION
202000362645 5-30 17:11 7400 COLONY COVE LN 63 DISPUTE
202000362642 5-30 17:09 9400 ATLANTIC BLVD 54 ILLEGALLY PARKED CAR
202000362665 5-30 17:08 5200 NEW KINGS RD 8 27 MISSING MENTALLY ILL
202000362663 5-30 17:06 8500 LAURENS RD 63 DISPUTE
202000362655 5-30 17:05 I295 S OFF RAMP / NEW KINGS RD 96 ASSIST MOTORIST
202000362660 5-30 17:05 UNIVERSITY/SANDRA 4 AUTO CRASH
202000362658 5-30 17:05 I95 S OFF RAMP / BAYMEADOWS RD 88P ASSAULT IN PROGRESS
202000362654 5-30 17:02 4600 WOOD AVE 0 88J ARMED ASSAULT JUST OCCURRED
202000362647 5-30 17:00 1000 GRUNTHAL ST 64 NOISE COMPLAINT
202000362636 5-30 17:00 4600 WOOD AVE 6388 DISPUTE WITH ASSAULT
202000362650 5-30 16:59 6200 ARLINGTON EXPY 76 ASSIST OTHER AGENCY
202082010542 5-30 16:58 700 BONITA RD 27 MENTALLY ILL PERSON
202000362644 5-30 16:55 7600 103RD ST 13 SUSPICIOUS PERSON
202000362634 5-30 16:52 5600 PEARL ST N 13 SUSPICIOUS PERSON
202000362641 5-30 16:52 14000 BEACH BLVD 63 DISPUTE
202000362627 5-30 16:51 10400 ATLANTIC BLVD 4 53 TRAFFIC CRASH PERSON INJURED
202000362617 5-30 16:51 1700 LEON RD 63 DISPUTE
202000362631 5-30 16:50 3500 HUNT ST 22 DOMESTIC
202000362639 5-30 16:48 11600 SAN JOSE BLVD 63 DISPUTE
202000362637 5-30 16:48 3900 SHADY LN 0 60 SUICIDE THREAT W/WEAPON
202000362620 5-30 16:48 100 DUVAL STATION RD 37 UNVERIFIED 911 CALL
202000362598 5-30 16:47 11500 WINGATE RD N 63 DISPUTE
202000362613 5-30 16:46 LORETTO RD / PINE ACRES RD 1066 CANCEL
202000362601 5-30 16:46 4400 DEERWOOD LAKE PKWY 63 DISPUTE
202000362630 5-30 16:44 5800 KINKAID RD 60 SUICIDE OR ATTEMPT
202000362618 5-30 16:39 MAIN ST N / TALLULAH AVE 4 AUTO CRASH
202000362614 5-30 16:38 7900 INDIA AVE 63 DISPUTE
202000362591 5-30 16:38 9600 CARBONDALE DR E 4 AUTO CRASH
202000362615 5-30 16:37 1900 LANE AVE S 2 63 DISPUTE IMPAIRED/INTOXICATED
202000362590 5-30 16:36 1600 EDGEWOOD AVE W 9 THEFT
202000362267 5-30 16:36 TIMUQUANA RD / CATOMA ST 3 HIT AND RUN CRASH
202000362616 5-30 16:36 CESERY BLVD / HOLLY BAY DR 76 ASSIST OTHER AGENCY
202000362612 5-30 16:34 2000 DAHLIA RD 76 ASSIST OTHER AGENCY
202000362611 5-30 16:33 700 STOCKTON ST 60 SUICIDE OR ATTEMPT
202000362610 5-30 16:33 7600 GALVESTON AVE 0 60 SUICIDE THREAT W/WEAPON
202000362608 5-30 16:32 UNIVERSITY BLVD / SANDRA RD 4 53 TRAFFIC CRASH PERSON INJURED
202000362607 5-30 16:31 3200 RICKY DR 76 ASSIST OTHER AGENCY
202000362499 5-30 16:29 7700 INVERMERE BLVD 21C BURGLARY CONVEYANCE
202000362603 5-30 16:28 5800 UNIVERSITY BLVD W 76 ASSIST OTHER AGENCY
202000362416 5-30 16:27 3000 BESSENT RD 22 DOMESTIC
202000362547 5-30 16:26 3400 PHILIPS HWY 6388 DISPUTE WITH ASSAULT
202000362568 5-30 16:26 10500 OLD ST AUGUSTINE RD 4 AUTO CRASH
202000362602 5-30 16:26 100 BEAVER 1050 TRAFFIC STOP
202000362544 5-30 16:26 2000 DUNSFORD TER 1066 CANCEL
202000362583 5-30 16:25 3900 SALISBURY RD 63 DISPUTE
202000362588 5-30 16:25 NORMANDY BLVD / SARVIS RD E 4 53 TRAFFIC CRASH PERSON INJURED
202000362536 5-30 16:23 12600 BEACH BLVD 9 THEFT
202000362592 5-30 16:22 100 AIRPORT CENTER DR 76 ASSIST OTHER AGENCY
202000362585 5-30 16:22 2500 BROADWAY AVE 63 DISPUTE
202000362596 5-30 16:22 6300 YOUNGERMAN CIR 4 AUTO CRASH
202000362594 5-30 16:20 STAT/PEARL8036XI 96 ASSIST MOTORIST
202000362587 5-30 16:20 5100 LENOX AVE 9J THEFT JUST OCCURRED
202000362582 5-30 16:19 5300 DOLPHIN POINT BLVD 27 MENTALLY ILL PERSON
202000362402 5-30 16:18 I295 S OFF RAMP / NEW KINGS RD 16 ROAD OBSTRUCTION
202000362584 5-30 16:17 100 UNION ST E 13 SUSPICIOUS PERSON
202000362573 5-30 16:16 2700 CESERY BLVD 88 ASSAULT
202000362451 5-30 16:15 9800 BEACH BLVD 63 DISPUTE
202000362565 5-30 16:15 1700 13TH ST W 1066 CANCEL
202000362578 5-30 16:15 2500 TEAL ST 37 UNVERIFIED 911 CALL
202000362569 5-30 16:13 3200 HARTLEY RD 63 DISPUTE
202000362576 5-30 16:13 1000 1ST ST E 63 DISPUTE
202000362396 5-30 16:11 14600 MOORE BRANCH RD 22 DOMESTIC
202000362533 5-30 16:10 10000 GATE PKWY N 4 63 CRASH INVOLVING DISPUTE
202000362555 5-30 16:10 11200 GARDEN MOSS CIR N 13 SUSPICIOUS PERSON
202000362566 5-30 16:09 1300 BROAD ST 76 ASSIST OTHER AGENCY
202000362513 5-30 16:08 8200 HECKSCHER DR 87 DAMAGED PROPERTY
202000362560 5-30 16:06 9800 WAGNER RD 13 SUSPICIOUS PERSON
202000362563 5-30 16:06 600 N LIBERTY STREET 4 AUTO CRASH
202000362562 5-30 16:06 ROWE AVE / LEM TURNER RD 4 AUTO CRASH
202000362529 5-30 16:03 SPENCER ST / WILLOW BRANCH AVE 64 NOISE COMPLAINT
202000362559 5-30 16:01 700 LIBERTY ST N 73 DRUG INVESTIGATION
202000362558 5-30 16:01 700 LIBERTY ST N 73 DRUG INVESTIGATION
202000362556 5-30 16:01 ARGYLE FOREST BLVD / SHINDLER DR 4 AUTO CRASH
202000362554 5-30 15:59 800 EDGEWOOD AVE N 60 SUICIDE OR ATTEMPT
202000362543 5-30 15:59 8500 ARGYLE FOREST BLVD 63 DISPUTE
202000362545 5-30 15:59 3800 CHAPELGATE RD 33 DISCHARGING OF FIREARM
202082010540 5-30 15:59 1600 DUTTON ISLAND WAY 21C BURGLARY CONVEYANCE
202000362520 5-30 15:59 SAN MARCO BLVD / HENDRICKS AVE 64 NOISE COMPLAINT
202000362552 5-30 15:58 100 32ND ST E 22 DOMESTIC
202000362517 5-30 15:57 6600 CORPORATE CENTER PKWY 4 AUTO CRASH
202000362527 5-30 15:55 3400 FAIRBANKS GRANT RD N 12 RECKLESS DRIVER
202000362549 5-30 15:55 100 43RD ST E 63 DISPUTE
202000362535 5-30 15:55 ATLANTIC BLVD SERVICE RD / KERNAN BLVD N 4 AUTO CRASH
202000362448 5-30 15:53 1700 MINDANAO DR 13 SUSPICIOUS PERSON
202000362454 5-30 15:53 5300 RIDGECREST AVE 14C VANDALISM CONVEYANCE
202000362443 5-30 15:52 ARGYLE FOREST BLVD / LOCH HIGHLANDS BLVD 4 AUTO CRASH
202000362179 5-30 15:51 100 42ND ST W 95IDT IDENTITY THEFT TELESERVE
202000362540 5-30 15:48 N I95EXIT OLDSTAUG RP / OLD ST AUGUSTINE RD 76 ASSIST OTHER AGENCY
202000362469 5-30 15:48 7900 103RD ST 63 DISPUTE
202000362484 5-30 15:48 10300 BEACH BLVD 63 DISPUTE
202000362531 5-30 15:46 2000 16TH ST W 63 DISPUTE
202000362424 5-30 15:45 3100 ST JOHNS BLUFF RD S 2 63 DISPUTE IMPAIRED/INTOXICATED
202000362352 5-30 15:43 7900 103RD ST 63 DISPUTE
202000362526 5-30 15:43 5200 MONCRIEF RD W 63 DISPUTE
202000362516 5-30 15:42 800 FRANKLIN ST 2 22 DOMESTIC DISTURBANCE
202000362524 5-30 15:41 600 NEWNAN ST N 13 SUSPICIOUS PERSON
202000362519 5-30 15:41 I10 EXPY 4 53 TRAFFIC CRASH PERSON INJURED
202000362486 5-30 15:41 3200 SHETLAND RD W 63 DISPUTE
202000362430 5-30 15:38 PLYMOUTH ST / GLEN LAURA RD 16 ROAD OBSTRUCTION
202000362503 5-30 15:35 4500 ATLANTIC BLVD 76 ASSIST OTHER AGENCY
202000362460 5-30 15:34 8600 DEERMOSS WAY W 63 DISPUTE
202000362496 5-30 15:34 10100 FRASER RD 37 UNVERIFIED 911 CALL
202000362497 5-30 15:33 3900 ORTEGA BLVD 1066 CANCEL
202000362502 5-30 15:33 10900 HECKSCHER DRIVE 96 ASSIST MOTORIST
202000362477 5-30 15:33 2100 KINGS PARK DR 0 22 DOMESTIC DISTURBANCE W/WEAPON
202000362492 5-30 15:32 5500(3500) BLK UNIVERSITY CLUB BLVD N 2 22 DOMESTIC DISTURBANCE
202000362472 5-30 15:32 2100 12TH ST W 61 FIGHT
202000362498 5-30 15:31 I10 EXPY CECIL COMMERCE 13 SUSPICIOUS PERSON
202000362482 5-30 15:31 11900 CHARLIE RD 2288 DOMESTIC DISPUTE WITH/ASSAULT
202000362400 5-30 15:31 14300 VAN ZILE AVE 2 63 DISPUTE IMPAIRED/INTOXICATED
202000362495 5-30 15:31 100 32ND ST E 22 DOMESTIC
202000362487 5-30 15:30 100 ICW WONDERWOOD BRG W 16 ROAD OBSTRUCTION
202000362432 5-30 15:28 4400 HUNTINGTON FOREST BLVD 22 DOMESTIC
202000362485 5-30 15:26 3500 JACONA DR 37 UNVERIFIED 911 CALL
202000362481 5-30 15:25 11700 FLOWERING PEACH CT 33 DISCHARGING OF FIREARM
202000362476 5-30 15:22 2700 CAVENDER CT 76 ASSIST OTHER AGENCY
202000362471 5-30 15:20 COMMERCE ST / CESERY BLVD 4 AUTO CRASH
202000362468 5-30 15:20 FLEMING ST / LELAND ST 33 DISCHARGING OF FIREARM
202000362466 5-30 15:16 2800 MYRTIS RD 0 60 SUICIDE THREAT W/WEAPON
202000362467 5-30 15:16 ATLANTIC BLVD / ST PAUL AVE 16 ROAD OBSTRUCTION
202000362464 5-30 15:15 4300 MONCRIEF RD W 63 DISPUTE
202000362415 5-30 15:15 2300 GLEN GARDNER DR 63 DISPUTE
202000362455 5-30 15:14 3400 MAIN ST N 22 DOMESTIC
202082010537 5-30 15:14 800 SEMINOLE RD 19 ANIMAL INVESTIGATION
202000362461 5-30 15:12 1500 LANCASTER TER 13 SUSPICIOUS PERSON
202000362462 5-30 15:12 UNION ST E / WASHINGTON ST N 63 DISPUTE
202082010536 5-30 15:11 7TH AVE N / BEACH PROPER AC N 54 ILLEGALLY PARKED CAR
202000362456 5-30 15:11 800 WASHINGTON ST N 63 DISPUTE
202000362458 5-30 15:11 3100 EMERSON EXPY 63 DISPUTE
202000362439 5-30 15:11 100 MAGNOLIA ST 86 LOST PROPERTY
202000362447 5-30 15:06 2100 BROADWAY AVE. 14 VANDALISM
202000362442 5-30 15:04 1200 GORHAM ST 76 ASSIST OTHER AGENCY
202000362441 5-30 15:03 OLD MIDDLEBURG RD N / NUSSBAUM DR 1050 TRAFFIC STOP
202000362413 5-30 15:03 4500 BAYMEADOWS RD 14 VANDALISM
202000362438 5-30 15:03 6300 BEACH BLVD 8 27 MISSING MENTALLY ILL
202000362440 5-30 15:02 1300 W 26TH ST 13 SUSPICIOUS PERSON
202000362422 5-30 15:02 VICTORIA LAKES DR N / CANOE CT 13 SUSPICIOUS PERSON
202000362437 5-30 15:02 9300 BAYMEADOWS RD 63 DISPUTE
202000362435 5-30 15:02 100 UNION ST E 5388 ASSAULT INVOLVING INJURY
202000362389 5-30 14:56 8500 GATE PKWY W 0 63 ARMED DISPUTE
202000362399 5-30 14:55 2100 KINGS PARK DR 2288 DOMESTIC DISPUTE WITH/ASSAULT
202000362395 5-30 14:54 8700 BEAVER ST W 4 AUTO CRASH
202000362426 5-30 14:54 8100 MCGLOTHLIN ST 76 ASSIST OTHER AGENCY
202000362411 5-30 14:54 17TH ST W / BOULEVARD 13 SUSPICIOUS PERSON
202000362427 5-30 14:54 SR23NB/103 96 ASSIST MOTORIST
202000362366 5-30 14:53 SHINDLER DR / 103RD ST 19 ANIMAL INVESTIGATION
202000362296 5-30 14:53 12500 LOOKOUT MOUNTAIN CT 50 FOUND/ABANDONED PROPERTY
202000362420 5-30 14:52 1200 25TH ST W 0 63 ARMED DISPUTE
202000362421 5-30 14:52 I295 N OFF RAMP / 103RD ST 13 SUSPICIOUS PERSON
202000362360 5-30 14:51 7500 ARLINGTON EXPY 19 ANIMAL INVESTIGATION
202000362417 5-30 14:50 1700 FOREST BLVD 1066 CANCEL
202000362385 5-30 14:50 3100 EDGEWOOD AVE W 63 DISPUTE
202000362350 5-30 14:49 8400 MERCHANTS WAY 10R VEHICLE THEFT RECOVERY
202000362378 5-30 14:43 2300 BRENTFIELD RD W 3 HIT AND RUN CRASH
202000362349 5-30 14:42 2800 MYRTIS RD 63 DISPUTE
202000362401 5-30 14:41 BURNING TREE LN E / JULINGTON CREEK RD 64 NOISE COMPLAINT
202000362264 5-30 14:40 100 DUVAL STATION RD 95ID IDENTITY THEFT
202000362393 5-30 14:39 7000 COLLINS RD 16 ROAD OBSTRUCTION
202000362359 5-30 14:38 6300 PEARL ST N 27 MENTALLY ILL PERSON
202000362368 5-30 14:36 500 LANE AVE S 2 63 DISPUTE IMPAIRED/INTOXICATED
202000362358 5-30 14:36 1800 BILODEAU CT 63 DISPUTE
202000362313 5-30 14:35 6800 WILSON BLVD 2 63 DISPUTE IMPAIRED/INTOXICATED
202000362394 5-30 14:34 600 TALLULAH AVE 1050 TRAFFIC STOP
202000362388 5-30 14:34 1500 MONUMENT RD 4 AUTO CRASH
202000362391 5-30 14:33 2800 MYRTIS RD 9T THEFT (TELESERVE)
202000362390 5-30 14:33 1300 MONUMENT RD 1050 TRAFFIC STOP
202000362345 5-30 14:32 4400 CONFEDERATE POINT RD 63 DISPUTE
202000362277 5-30 14:32 6700 CHERBOURG AVE S 22 DOMESTIC
202000362384 5-30 14:31 9500 ARL EXPY 79 OBSCENE / THREAT CALL OR LETTER
202000362379 5-30 14:31 7300 ARGYLE FOREST BLVD 4 AUTO CRASH
202082010535 5-30 14:30 100 ROYAL PALMS DR 50 FOUND/ABANDONED PROPERTY
202000362380 5-30 14:29 4300 GENOA AVE 63 DISPUTE
202082010534 5-30 14:29 OCEAN BLVD / DEWEES AVE 54 ILLEGALLY PARKED CAR
202000362374 5-30 14:29 1300 23RD ST W 63 DISPUTE
202000362375 5-30 14:25 41/BRENTWOOD 1050 TRAFFIC STOP
202000362373 5-30 14:25 PLYMOUTH ST / CASSAT AVE 1050 TRAFFIC STOP
202000362348 5-30 14:20 6600 NORMANDY BLVD 63 DISPUTE
202000362336 5-30 14:19 NORMANDY BLVD / COUNTY ROAD 217 4 63 CRASH INVOLVING DISPUTE
202000362344 5-30 14:19 MAIN ST N / PECAN PARK RD 13 SUSPICIOUS PERSON
202000362357 5-30 14:19 300 LAURINA ST 63 DISPUTE
202000362362 5-30 14:19 400 EDGEWOOD AVE S 1050 TRAFFIC STOP
202000362299 5-30 14:18 PLYMOUTH ST / CASSAT AVE 4 AUTO CRASH
202000362356 5-30 14:17 TIMUQUANA RD / SEABOARD AVE 1050 TRAFFIC STOP
202000362303 5-30 14:16 4400 MAJESTIC BLUFF DR N 95ID IDENTITY THEFT
202000362353 5-30 14:15 UNIVERSITY BLVD / MERRILL RD 12 RECKLESS DRIVER
202000362351 5-30 14:14 I95 N OFF RAMP / PECAN PARK RD 4 AUTO CRASH
202000362347 5-30 14:13 5000 MAIN ST N 22 DOMESTIC
202000362329 5-30 14:12 9900 OLD BAYMEADOWS RD 2 IMPAIRED/INTOXICATED
202000362242 5-30 14:10 12100 LAKE FERN DR E 0 63 ARMED DISPUTE
202000362271 5-30 14:08 6900 WILEY RD 63 DISPUTE
202000362319 5-30 14:07 600 8TH ST W 49 REPORT TO HOSPITAL
202000362287 5-30 14:06 3800 UNIVERSITY BLVD S 4 AUTO CRASH
202000362317 5-30 14:05 8000 LONE STAR RD 22 DOMESTIC
202000362318 5-30 14:04 7100 SANS SOUCI RD 63 DISPUTE
202000362294 5-30 14:03 100 CENTRAL AVE 4 AUTO CRASH
202000362332 5-30 14:01 ROOSEVELT BLVD / ST JOHNS AVE 1050 TRAFFIC STOP
202000362322 5-30 14:00 4200 MONCRIEF RD W 3 HIT AND RUN CRASH